Location: *
(47.7167°N, 1.7333°W)
Time: 13:37:13
(UTC+00:00)

Cosmos 1934 Rocket - Pass Details

Date: 09 April 2020
Orbit: 937 x 1000 km, 83.0° (Epoch: 03 June)

Event Time Altitude Azimuth Distance (km) Brightness Sun altitude
Rises 22:02:30 0° 351° (N) 3,697 8.0 -27.7°
Reaches altitude 10° 22:05:03 10° 352° (N) 2,736 7.1 -28.0°
Maximum altitude 22:11:20 82° 81° (E) 980 3.8 -28.6°
Enters shadow 22:11:29 81° 108° (ESE) 981 3.8 -28.6°
